Change the Weather History Date:

Saturday, January 19, 2013

  Actual Average Record
Temperature  
Mean Temperature 50 °F -  
Max Temperature 55 °F 45 °F 63 °F (1975)
Min Temperature 46 °F 33 °F 18 °F (1973)
Degree Days  
Heating Degree Days 14    
Moisture  
Dew Point 6 °F    
Average Humidity 18    
Maximum Humidity 33    
Minimum Humidity 9    
Precipitation  
Precipitation 0.00 in - - ()
Sea Level Pressure  
Sea Level Pressure 30.17 in    
Wind  
Wind Speed 4 mph (NNE)    
Max Wind Speed 8 mph    
Max Gust Speed -    
Visibility 10 miles    
Events      
Averages and records for this station are not official NWS values.
T = Trace of Precipitation, MM = Missing Value Source: NWS Daily Summary

Daily Weather History Graph

Daily Weather History Graph

Search for Another Location

Airport or City:

Trip Planner

Search our weather history database for the weather conditions in past years. The results will help you decide how hot, cold, wet, or windy it might be!

Date:

Astronomy

Jan. 19, 2013 Rise Set
Actual Time 7:18 AM PST 5:08 PM PST
Civil Twilight 6:49 AM PST 5:37 PM PST
Nautical Twilight 6:17 AM PST 6:10 PM PST
Astronomical Twilight 5:45 AM PST 6:42 PM PST
Moon 11:37 AM PST (1/19) 12:58 AM PST (1/19)
Length of Visible Light 10h 48m
Length of Day
9h 49m
First Quarter, 58% of the Moon is Illuminated
Jan 19
First Quarter
Jan 26
Full
Feb 3
Last Quarter
Feb 9
New
Feb 17
First Quarter

Hourly Weather History & Observations

Time (PST) Temp. Dew Point Humidity Pressure Visibility Wind Dir Wind Speed Gust Speed Precip Events Conditions
12:52 AM 48.9 °F -6.0 °F 10% 30.13 in 10.0 mi NE 8.1 mph - N/A   Clear
1:52 AM 48.9 °F -6.0 °F 10% 30.13 in 10.0 mi NE 5.8 mph - N/A   Clear
2:52 AM 48.0 °F -7.1 °F 10% 30.14 in 10.0 mi NE 4.6 mph - N/A   Clear
3:52 AM 48.0 °F -7.1 °F 10% 30.15 in 10.0 mi NE 4.6 mph - N/A   Clear
4:52 AM 46.9 °F -7.1 °F 10% 30.16 in 10.0 mi Calm Calm - N/A   Clear
5:52 AM 46.9 °F -5.1 °F 11% 30.18 in 10.0 mi Calm Calm - N/A   Clear
6:52 AM 46.9 °F -4.0 °F 12% 30.19 in 10.0 mi North 3.5 mph - N/A   Clear
7:52 AM 48.9 °F -8.0 °F 9% 30.19 in 10.0 mi Calm Calm - N/A   Clear
8:52 AM 51.1 °F -6.0 °F 9% 30.21 in 10.0 mi Calm Calm - N/A   Clear
9:52 AM 53.1 °F -0.0 °F 11% 30.21 in 10.0 mi Calm Calm - N/A   Clear
10:52 AM 53.1 °F 3.9 °F 14% 30.20 in 10.0 mi Calm Calm - N/A   Clear
11:52 AM 54.0 °F 6.1 °F 15% 30.19 in 10.0 mi SSW 3.5 mph - N/A   Clear
12:52 PM 55.0 °F 12.9 °F 19% 30.16 in 10.0 mi West 3.5 mph - N/A   Clear
1:52 PM 55.0 °F 17.1 °F 23% 30.15 in 10.0 mi Variable 3.5 mph - N/A   Clear
2:52 PM 55.0 °F 19.9 °F 25% 30.15 in 10.0 mi West 3.5 mph - N/A   Clear
3:52 PM 54.0 °F 19.0 °F 25% 30.16 in 10.0 mi West 3.5 mph - N/A   Clear
4:52 PM 51.1 °F 21.0 °F 31% 30.17 in 10.0 mi WNW 3.5 mph - N/A   Clear
5:52 PM 48.9 °F 21.0 °F 33% 30.18 in 10.0 mi North 3.5 mph - N/A   Clear
6:52 PM 48.9 °F 21.0 °F 33% 30.18 in 10.0 mi NE 4.6 mph - N/A   Clear
7:52 PM 50.0 °F 3.0 °F 15% 30.18 in 10.0 mi ENE 5.8 mph - N/A   Clear
8:52 PM 48.0 °F 16.0 °F 28% 30.18 in 10.0 mi East 3.5 mph - N/A   Clear
9:52 PM 50.0 °F 10.9 °F 21% 30.17 in 10.0 mi Calm Calm - N/A   Clear
10:52 PM 50.0 °F 10.0 °F 20% 30.18 in 10.0 mi Calm Calm - N/A   Clear
11:52 PM 48.9 °F 7.0 °F 18% 30.19 in 10.0 mi Calm Calm - N/A   Clear